Year,Month,Day,Hour,Minute,Value (Times are PST for temperature in C)
2009,05,23,00,00,10.10
2009,05,23,00,01,10.10
2009,05,23,00,02,10.10
2009,05,23,00,03,10.10
2009,05,23,00,04,10.10
2009,05,23,00,05,10.10
2009,05,23,00,06,10.10
2009,05,23,00,07,10.10
2009,05,23,00,08,10.10
2009,05,23,00,09,10.20
2009,05,23,00,10,10.20
2009,05,23,00,11,10.20
2009,05,23,00,12,10.20
2009,05,23,00,13,10.30
2009,05,23,00,14,10.30
2009,05,23,00,15,10.30
2009,05,23,00,16,10.30
2009,05,23,00,17,10.30
2009,05,23,00,18,10.30
2009,05,23,00,19,10.30
2009,05,23,00,20,10.20
2009,05,23,00,21,10.20
2009,05,23,00,22,10.20
2009,05,23,00,23,10.20
2009,05,23,00,24,10.20
2009,05,23,00,25,10.20
2009,05,23,00,26,10.10
2009,05,23,00,27,10.10
2009,05,23,00,28,10.10
2009,05,23,00,29,10.00
2009,05,23,00,30,10.00
2009,05,23,00,31,9.90
2009,05,23,00,32,9.90
2009,05,23,00,33,9.90
2009,05,23,00,34,9.90
2009,05,23,00,35,9.90
2009,05,23,00,36,9.90
2009,05,23,00,37,9.90
2009,05,23,00,38,9.90
2009,05,23,00,39,9.80
2009,05,23,00,40,9.80
2009,05,23,00,41,9.80
2009,05,23,00,42,9.80
2009,05,23,00,43,9.80
2009,05,23,00,44,9.80
2009,05,23,00,45,9.80
2009,05,23,00,46,9.80
2009,05,23,00,47,9.80
2009,05,23,00,48,9.80
2009,05,23,00,49,9.80
2009,05,23,00,50,9.80
2009,05,23,00,51,9.80
2009,05,23,00,52,9.80
2009,05,23,00,53,9.80
2009,05,23,00,54,9.90
2009,05,23,00,55,9.90
2009,05,23,00,56,9.90
2009,05,23,00,57,9.90
2009,05,23,00,58,9.90
2009,05,23,00,59,10.00
2009,05,23,01,00,10.00
2009,05,23,01,01,10.00
2009,05,23,01,02,10.10
2009,05,23,01,03,10.10
2009,05,23,01,04,10.10
2009,05,23,01,05,10.10
2009,05,23,01,06,10.20
2009,05,23,01,07,10.20
2009,05,23,01,08,10.20
2009,05,23,01,09,10.20
2009,05,23,01,10,10.10
2009,05,23,01,11,10.10
2009,05,23,01,12,10.10
2009,05,23,01,13,10.10
2009,05,23,01,14,10.00
2009,05,23,01,15,10.00
2009,05,23,01,16,10.00
2009,05,23,01,17,9.90
2009,05,23,01,18,9.90
2009,05,23,01,19,9.90
2009,05,23,01,20,9.80
2009,05,23,01,21,9.80
2009,05,23,01,22,9.70
2009,05,23,01,23,9.70
2009,05,23,01,24,9.70
2009,05,23,01,25,9.70
2009,05,23,01,26,9.70
2009,05,23,01,27,9.70
2009,05,23,01,28,9.60
2009,05,23,01,29,9.60
2009,05,23,01,30,9.60
2009,05,23,01,31,9.60
2009,05,23,01,32,9.60
2009,05,23,01,33,9.60
2009,05,23,01,34,9.60
2009,05,23,01,35,9.60
2009,05,23,01,36,9.60
2009,05,23,01,37,9.50
2009,05,23,01,38,9.50
2009,05,23,01,39,9.50
2009,05,23,01,40,9.40
2009,05,23,01,41,9.40
2009,05,23,01,42,9.40
2009,05,23,01,43,9.30
2009,05,23,01,44,9.30
2009,05,23,01,45,9.30
2009,05,23,01,46,9.30
2009,05,23,01,47,9.20
2009,05,23,01,48,9.20
2009,05,23,01,49,9.20
2009,05,23,01,50,9.20
2009,05,23,01,51,9.20
2009,05,23,01,52,9.20
2009,05,23,01,53,9.20
2009,05,23,01,54,9.20
2009,05,23,01,55,9.20
2009,05,23,01,56,9.20
2009,05,23,01,57,9.10
2009,05,23,01,58,9.10
2009,05,23,01,59,9.10
2009,05,23,02,00,9.10
2009,05,23,02,01,9.10
2009,05,23,02,02,9.10
2009,05,23,02,03,9.00
2009,05,23,02,04,9.00
2009,05,23,02,05,9.00
2009,05,23,02,06,9.00
2009,05,23,02,07,9.00
2009,05,23,02,08,9.00
2009,05,23,02,09,8.90
2009,05,23,02,10,8.90
2009,05,23,02,11,8.90
2009,05,23,02,12,8.90
2009,05,23,02,13,8.90
2009,05,23,02,14,8.80
2009,05,23,02,15,8.80
2009,05,23,02,16,8.80
2009,05,23,02,17,8.80
2009,05,23,02,18,8.70
2009,05,23,02,19,8.70
2009,05,23,02,20,8.70
2009,05,23,02,21,8.70
2009,05,23,02,22,8.70
2009,05,23,02,23,8.70
2009,05,23,02,24,8.60
2009,05,23,02,25,8.60
2009,05,23,02,26,8.60
2009,05,23,02,27,8.60
2009,05,23,02,28,8.60
2009,05,23,02,29,8.60
2009,05,23,02,30,8.60
2009,05,23,02,31,8.60
2009,05,23,02,32,8.50
2009,05,23,02,33,8.50
2009,05,23,02,34,8.50
2009,05,23,02,35,8.40
2009,05,23,02,36,8.40
2009,05,23,02,37,8.40
2009,05,23,02,38,8.40
2009,05,23,02,39,8.40
2009,05,23,02,40,8.30
2009,05,23,02,41,8.30
2009,05,23,02,42,8.30
2009,05,23,02,43,8.30
2009,05,23,02,44,8.30
2009,05,23,02,45,8.30
2009,05,23,02,46,8.30
2009,05,23,02,47,8.30
2009,05,23,02,48,8.30
2009,05,23,02,49,8.30
2009,05,23,02,50,8.30
2009,05,23,02,51,8.30
2009,05,23,02,52,8.30
2009,05,23,02,53,8.30
2009,05,23,02,54,8.20
2009,05,23,02,55,8.20
2009,05,23,02,56,8.20
2009,05,23,02,57,8.20
2009,05,23,02,58,8.10
2009,05,23,02,59,8.10
2009,05,23,03,00,8.10
2009,05,23,03,01,8.10
2009,05,23,03,02,8.10
2009,05,23,03,03,8.10
2009,05,23,03,04,8.10
2009,05,23,03,05,8.00
2009,05,23,03,06,8.00
2009,05,23,03,07,8.00
2009,05,23,03,08,7.90
2009,05,23,03,09,7.90
2009,05,23,03,10,7.90
2009,05,23,03,11,7.90
2009,05,23,03,12,7.90
2009,05,23,03,13,7.80
2009,05,23,03,14,7.80
2009,05,23,03,15,7.80
2009,05,23,03,16,7.80
2009,05,23,03,17,7.80
2009,05,23,03,18,7.70
2009,05,23,03,19,7.70
2009,05,23,03,20,7.70
2009,05,23,03,21,7.70
2009,05,23,03,22,7.70
2009,05,23,03,23,7.70
2009,05,23,03,24,7.70
2009,05,23,03,25,7.70
2009,05,23,03,26,7.70
2009,05,23,03,27,7.70
2009,05,23,03,28,7.70
2009,05,23,03,29,7.70
2009,05,23,03,30,7.70
2009,05,23,03,31,7.70
2009,05,23,03,32,7.70
2009,05,23,03,33,7.70
2009,05,23,03,34,7.70
2009,05,23,03,35,7.70
2009,05,23,03,36,7.70
2009,05,23,03,37,7.60
2009,05,23,03,38,7.60
2009,05,23,03,39,7.60
2009,05,23,03,40,7.60
2009,05,23,03,41,7.60
2009,05,23,03,42,7.60
2009,05,23,03,43,7.60
2009,05,23,03,44,7.60
2009,05,23,03,45,7.60
2009,05,23,03,46,7.60
2009,05,23,03,47,7.60
2009,05,23,03,48,7.60
2009,05,23,03,49,7.60
2009,05,23,03,50,7.60
2009,05,23,03,51,7.60
2009,05,23,03,52,7.60
2009,05,23,03,53,7.60
2009,05,23,03,54,7.70
2009,05,23,03,55,7.70
2009,05,23,03,56,7.70
2009,05,23,03,57,7.70
2009,05,23,03,58,7.70
2009,05,23,03,59,7.70
2009,05,23,04,00,7.70
2009,05,23,04,01,7.80
2009,05,23,04,02,7.80
2009,05,23,04,03,7.80
2009,05,23,04,17,7.80
2009,05,23,04,20,7.70
2009,05,23,04,21,7.70
2009,05,23,04,22,7.70
2009,05,23,04,23,7.60
2009,05,23,04,24,7.60
2009,05,23,04,25,7.60
2009,05,23,04,26,7.60
2009,05,23,04,27,7.50
2009,05,23,04,28,7.50
2009,05,23,04,29,7.50
2009,05,23,04,30,7.40
2009,05,23,04,31,7.40
2009,05,23,04,32,7.40
2009,05,23,04,33,7.40
2009,05,23,04,34,7.30
2009,05,23,04,35,7.30
2009,05,23,04,36,7.20
2009,05,23,04,37,7.20
2009,05,23,04,38,7.20
2009,05,23,04,39,7.10
2009,05,23,04,40,7.10
2009,05,23,04,41,7.10
2009,05,23,04,42,7.10
2009,05,23,04,43,7.00
2009,05,23,04,44,7.00
2009,05,23,04,45,7.00
2009,05,23,04,46,6.90
2009,05,23,04,47,6.90
2009,05,23,04,48,6.90
2009,05,23,04,49,6.80
2009,05,23,04,50,6.80
2009,05,23,04,51,6.80
2009,05,23,04,52,6.80
2009,05,23,04,53,6.80
2009,05,23,04,54,6.90
2009,05,23,04,55,6.90
2009,05,23,04,56,6.90
2009,05,23,04,57,6.90
2009,05,23,04,58,6.80
2009,05,23,04,59,6.80
2009,05,23,05,00,6.80
2009,05,23,05,01,6.80
2009,05,23,05,02,6.80
2009,05,23,05,03,6.80
2009,05,23,05,04,6.90
2009,05,23,05,05,6.90
2009,05,23,05,06,7.00
2009,05,23,05,07,7.00
2009,05,23,05,08,7.10
2009,05,23,05,09,7.10
2009,05,23,05,10,7.10
2009,05,23,05,11,7.10
2009,05,23,05,12,7.10
2009,05,23,05,13,7.10
2009,05,23,05,14,7.00
2009,05,23,05,15,7.00
2009,05,23,05,16,6.90
2009,05,23,05,17,6.90
2009,05,23,05,18,6.90
2009,05,23,05,19,6.90
2009,05,23,05,20,6.90
2009,05,23,05,21,6.80
2009,05,23,05,22,6.80
2009,05,23,05,23,6.80
2009,05,23,05,24,6.70
2009,05,23,05,25,6.70
2009,05,23,05,26,6.70
2009,05,23,05,27,6.70
2009,05,23,05,28,6.70
2009,05,23,05,29,6.70
2009,05,23,05,30,6.70
2009,05,23,05,31,6.70
2009,05,23,05,32,6.70
2009,05,23,05,33,6.70
2009,05,23,05,34,6.70
2009,05,23,05,35,6.70
2009,05,23,05,36,6.70
2009,05,23,05,37,6.70
2009,05,23,05,38,6.70
2009,05,23,05,39,6.70
2009,05,23,05,40,6.70
2009,05,23,05,41,6.70
2009,05,23,05,42,6.70
2009,05,23,05,43,6.70
2009,05,23,05,44,6.70
2009,05,23,05,45,6.70
2009,05,23,05,46,6.70
2009,05,23,05,47,6.70
2009,05,23,05,48,6.70
2009,05,23,05,49,6.70
2009,05,23,05,50,6.70
2009,05,23,05,51,6.70
2009,05,23,05,52,6.70
2009,05,23,05,53,6.70
2009,05,23,05,54,6.70
2009,05,23,05,55,6.70
2009,05,23,05,56,6.70
2009,05,23,05,57,6.70
2009,05,23,05,58,6.70
2009,05,23,05,59,6.70
2009,05,23,06,00,6.70
2009,05,23,06,01,6.70
2009,05,23,06,02,6.80
2009,05,23,06,03,6.80
2009,05,23,06,04,6.80
2009,05,23,06,05,6.80
2009,05,23,06,06,6.80
2009,05,23,06,07,6.80
2009,05,23,06,08,6.80
2009,05,23,06,09,6.80
2009,05,23,06,10,6.80
2009,05,23,06,11,6.80
2009,05,23,06,12,6.80
2009,05,23,06,13,6.90
2009,05,23,06,14,6.90
2009,05,23,06,15,6.90
2009,05,23,06,16,7.00
2009,05,23,06,17,7.00
2009,05,23,06,18,7.10
2009,05,23,06,19,7.10
2009,05,23,06,20,7.20
2009,05,23,06,21,7.20
2009,05,23,06,22,7.30
2009,05,23,06,23,7.30
2009,05,23,06,24,7.40
2009,05,23,06,25,7.40
2009,05,23,06,26,7.50
2009,05,23,06,27,7.60
2009,05,23,06,28,7.60
2009,05,23,06,29,7.70
2009,05,23,06,30,7.80
2009,05,23,06,31,7.80
2009,05,23,06,32,7.90
2009,05,23,06,33,8.00
2009,05,23,06,34,8.10
2009,05,23,06,35,8.20
2009,05,23,06,36,8.30
2009,05,23,06,37,8.40
2009,05,23,06,38,8.50
2009,05,23,06,39,8.60
2009,05,23,06,40,8.70
2009,05,23,06,41,8.80
2009,05,23,06,42,8.90
2009,05,23,06,43,9.00
2009,05,23,06,44,9.00
2009,05,23,06,45,9.10
2009,05,23,06,46,9.10
2009,05,23,06,47,9.20
2009,05,23,06,48,9.20
2009,05,23,06,49,9.30
2009,05,23,06,50,9.30
2009,05,23,06,51,9.40
2009,05,23,06,52,9.50
2009,05,23,06,53,9.50
2009,05,23,06,54,9.60
2009,05,23,06,55,9.70
2009,05,23,06,56,9.80
2009,05,23,06,57,9.80
2009,05,23,06,58,9.90
2009,05,23,06,59,10.00
2009,05,23,07,00,10.10
2009,05,23,07,01,10.10
2009,05,23,07,02,10.20
2009,05,23,07,03,10.30
2009,05,23,07,04,10.40
2009,05,23,07,05,10.40
2009,05,23,07,06,10.50
2009,05,23,07,07,10.60
2009,05,23,07,08,10.70
2009,05,23,07,09,10.70
2009,05,23,07,10,10.70
2009,05,23,07,11,10.80
2009,05,23,07,12,10.80
2009,05,23,07,13,10.80
2009,05,23,07,14,10.80
2009,05,23,07,15,10.80
2009,05,23,07,16,10.80
2009,05,23,07,17,10.80
2009,05,23,07,18,10.80
2009,05,23,07,19,10.80
2009,05,23,07,20,10.80
2009,05,23,07,21,10.80
2009,05,23,07,22,10.90
2009,05,23,07,23,11.00
2009,05,23,07,24,11.00
2009,05,23,07,25,11.10
2009,05,23,07,26,11.10
2009,05,23,07,27,11.20
2009,05,23,07,28,11.20
2009,05,23,07,29,11.20
2009,05,23,07,30,11.20
2009,05,23,07,31,11.30
2009,05,23,07,32,11.30
2009,05,23,07,33,11.30
2009,05,23,07,34,11.40
2009,05,23,07,35,11.40
2009,05,23,07,36,11.50
2009,05,23,07,37,11.50
2009,05,23,07,38,11.60
2009,05,23,07,39,11.60
2009,05,23,07,40,11.60
2009,05,23,07,41,11.70
2009,05,23,07,42,11.70
2009,05,23,07,43,11.80
2009,05,23,07,44,11.80
2009,05,23,07,45,11.80
2009,05,23,07,46,11.80
2009,05,23,07,47,11.80
2009,05,23,07,48,11.80
2009,05,23,07,49,11.80
2009,05,23,07,50,11.80
2009,05,23,07,51,11.80
2009,05,23,07,52,11.90
2009,05,23,07,53,11.90
2009,05,23,07,54,11.90
2009,05,23,07,55,11.90
2009,05,23,07,56,11.90
2009,05,23,07,57,11.90
2009,05,23,07,58,11.90
2009,05,23,07,59,12.00
2009,05,23,08,00,12.00
2009,05,23,08,01,12.10
2009,05,23,08,02,12.10
2009,05,23,08,03,12.20
2009,05,23,08,04,12.20
2009,05,23,08,05,12.20
2009,05,23,08,06,12.30
2009,05,23,08,07,12.30
2009,05,23,08,08,12.40
2009,05,23,08,09,12.50
2009,05,23,08,10,12.60
2009,05,23,08,11,12.60
2009,05,23,08,12,12.60
2009,05,23,08,13,12.70
2009,05,23,08,14,12.70
2009,05,23,08,15,12.70
2009,05,23,08,16,12.60
2009,05,23,08,17,12.70
2009,05,23,08,18,12.70
2009,05,23,08,19,12.70
2009,05,23,08,20,12.80
2009,05,23,08,21,12.80
2009,05,23,08,22,12.90
2009,05,23,08,23,13.00
2009,05,23,08,24,13.10
2009,05,23,08,25,13.10
2009,05,23,08,26,13.10
2009,05,23,08,27,13.10
2009,05,23,08,28,13.20
2009,05,23,08,29,13.20
2009,05,23,08,30,13.20
2009,05,23,08,31,13.30
2009,05,23,08,32,13.30
2009,05,23,08,33,13.40
2009,05,23,08,34,13.40
2009,05,23,08,35,13.40
2009,05,23,08,36,13.50
2009,05,23,08,37,13.40
2009,05,23,08,38,13.40
2009,05,23,08,39,13.30
2009,05,23,08,40,13.30
2009,05,23,08,41,13.20
2009,05,23,08,42,13.20
2009,05,23,08,43,13.20
2009,05,23,08,44,13.20
2009,05,23,08,45,13.20
2009,05,23,08,46,13.10
2009,05,23,08,47,13.10
2009,05,23,08,48,13.10
2009,05,23,08,49,13.10
2009,05,23,08,50,13.10
2009,05,23,08,51,13.10
2009,05,23,08,52,13.20
2009,05,23,08,53,13.20
2009,05,23,08,54,13.20
2009,05,23,08,55,13.20
2009,05,23,08,56,13.20
2009,05,23,08,57,13.30
2009,05,23,08,58,13.30
2009,05,23,08,59,13.30
2009,05,23,09,00,13.30
2009,05,23,09,01,13.30
2009,05,23,09,02,13.30
2009,05,23,09,03,13.40
2009,05,23,09,04,13.50
2009,05,23,09,05,13.60
2009,05,23,09,06,13.60
2009,05,23,09,07,13.70
2009,05,23,09,08,13.70
2009,05,23,09,09,13.80
2009,05,23,09,10,13.80
2009,05,23,09,11,13.70
2009,05,23,09,12,13.60
2009,05,23,09,13,13.60
2009,05,23,09,14,13.50
2009,05,23,09,15,13.50
2009,05,23,09,16,13.40
2009,05,23,09,17,13.40
2009,05,23,09,18,13.30
2009,05,23,09,19,13.30
2009,05,23,09,20,13.40
2009,05,23,09,21,13.40
2009,05,23,09,22,13.50
2009,05,23,09,23,13.60
2009,05,23,09,24,13.60
2009,05,23,09,25,13.60
2009,05,23,09,26,13.70
2009,05,23,09,27,13.70
2009,05,23,09,28,13.80
2009,05,23,09,29,13.70
2009,05,23,09,30,13.70
2009,05,23,09,31,13.70
2009,05,23,09,32,13.70
2009,05,23,09,33,13.80
2009,05,23,09,34,13.80
2009,05,23,09,35,13.90
2009,05,23,09,36,13.90
2009,05,23,09,37,13.90
2009,05,23,09,38,13.90
2009,05,23,09,39,13.90
2009,05,23,09,40,13.90
2009,05,23,09,41,13.90
2009,05,23,09,42,14.00
2009,05,23,09,43,14.10
2009,05,23,09,44,14.20
2009,05,23,09,45,14.30
2009,05,23,09,46,14.30
2009,05,23,09,47,14.30
2009,05,23,09,48,14.30
2009,05,23,09,49,14.30
2009,05,23,09,50,14.30
2009,05,23,09,51,14.40
2009,05,23,09,52,14.40
2009,05,23,09,53,14.50
2009,05,23,09,54,14.70
2009,05,23,09,55,14.90
2009,05,23,09,56,15.00
2009,05,23,09,57,15.10
2009,05,23,09,58,15.20
2009,05,23,09,59,15.40
2009,05,23,10,00,15.40
2009,05,23,10,01,15.40
2009,05,23,10,02,15.30
2009,05,23,10,03,15.20
2009,05,23,10,04,15.20
2009,05,23,10,05,15.20
2009,05,23,10,06,15.20
2009,05,23,10,07,15.20
2009,05,23,10,08,15.00
2009,05,23,10,09,15.10
2009,05,23,10,10,15.10
2009,05,23,10,11,15.00
2009,05,23,10,12,15.10
2009,05,23,10,13,15.20
2009,05,23,10,14,15.20
2009,05,23,10,15,15.20
2009,05,23,10,16,15.20
2009,05,23,10,17,15.20
2009,05,23,10,18,15.10
2009,05,23,10,19,15.00
2009,05,23,10,20,15.10
2009,05,23,10,21,15.10
2009,05,23,10,22,15.10
2009,05,23,10,23,15.20
2009,05,23,10,24,15.20
2009,05,23,10,25,15.20
2009,05,23,10,26,15.10
2009,05,23,10,27,15.10
2009,05,23,10,28,15.00
2009,05,23,10,29,15.00
2009,05,23,10,30,15.00
2009,05,23,10,31,15.00
2009,05,23,10,32,15.10
2009,05,23,10,33,15.30
2009,05,23,10,34,15.30
2009,05,23,10,35,15.40
2009,05,23,10,36,15.50
2009,05,23,10,37,15.60
2009,05,23,10,38,15.70
2009,05,23,10,39,15.70
2009,05,23,10,40,15.60
2009,05,23,10,41,15.40
2009,05,23,10,42,15.30
2009,05,23,10,43,15.30
2009,05,23,10,44,15.20
2009,05,23,10,45,15.20
2009,05,23,10,46,15.10
2009,05,23,10,47,15.00
2009,05,23,10,48,15.00
2009,05,23,10,49,15.00
2009,05,23,10,50,15.00
2009,05,23,10,51,15.00
2009,05,23,10,52,15.00
2009,05,23,10,53,15.00
2009,05,23,10,54,15.00
2009,05,23,10,55,15.20
2009,05,23,10,56,15.30
2009,05,23,10,57,15.30
2009,05,23,10,58,15.30
2009,05,23,10,59,15.30
2009,05,23,11,00,15.30
2009,05,23,11,01,15.30
2009,05,23,11,02,15.30
2009,05,23,11,03,15.30
2009,05,23,11,04,15.30
2009,05,23,11,05,15.30
2009,05,23,11,06,15.50
2009,05,23,11,07,15.60
2009,05,23,11,08,15.60
2009,05,23,11,09,15.60
2009,05,23,11,10,15.70
2009,05,23,11,11,15.70
2009,05,23,11,12,15.80
2009,05,23,11,13,15.80
2009,05,23,11,14,15.90
2009,05,23,11,15,15.90
2009,05,23,11,16,15.90
2009,05,23,11,17,15.90
2009,05,23,11,18,15.90
2009,05,23,11,19,16.00
2009,05,23,11,20,16.00
2009,05,23,11,21,15.90
2009,05,23,11,22,15.90
2009,05,23,11,23,15.90
2009,05,23,11,24,16.00
2009,05,23,11,25,16.10
2009,05,23,11,26,16.20
2009,05,23,11,27,16.30
2009,05,23,11,28,16.40
2009,05,23,11,29,16.40
2009,05,23,11,30,16.40
2009,05,23,11,31,16.30
2009,05,23,11,32,16.20
2009,05,23,11,33,16.20
2009,05,23,11,34,16.20
2009,05,23,11,35,16.20
2009,05,23,11,36,16.30
2009,05,23,11,37,16.20
2009,05,23,11,38,16.20
2009,05,23,11,39,16.20
2009,05,23,11,40,16.10
2009,05,23,11,41,16.20
2009,05,23,11,42,16.20
2009,05,23,11,43,16.20
2009,05,23,11,44,16.20
2009,05,23,11,45,16.20
2009,05,23,11,46,16.20
2009,05,23,11,47,16.20
2009,05,23,11,48,16.30
2009,05,23,11,49,16.30
2009,05,23,11,50,16.30
2009,05,23,11,51,16.40
2009,05,23,11,52,16.50
2009,05,23,11,53,16.50
2009,05,23,11,54,16.50
2009,05,23,11,55,16.50
2009,05,23,11,56,16.50
2009,05,23,11,57,16.40
2009,05,23,11,58,16.40
2009,05,23,11,59,16.30
2009,05,23,12,00,16.30
2009,05,23,12,01,16.30
2009,05,23,12,02,16.30
2009,05,23,12,03,16.30
2009,05,23,12,04,16.30
2009,05,23,12,05,16.30
2009,05,23,12,06,16.30
2009,05,23,12,07,16.40
2009,05,23,12,08,16.50
2009,05,23,12,09,16.50
2009,05,23,12,10,16.60
2009,05,23,12,11,16.70
2009,05,23,12,12,16.80
2009,05,23,12,13,16.90
2009,05,23,12,14,16.90
2009,05,23,12,15,17.00
2009,05,23,12,16,16.90
2009,05,23,12,17,16.80
2009,05,23,12,18,16.70
2009,05,23,12,19,16.60
2009,05,23,12,20,16.60
2009,05,23,12,21,16.60
2009,05,23,12,22,16.70
2009,05,23,12,23,16.70
2009,05,23,12,24,16.70
2009,05,23,12,25,16.80
2009,05,23,12,26,16.90
2009,05,23,12,27,16.90
2009,05,23,12,28,16.80
2009,05,23,12,29,16.60
2009,05,23,12,30,16.60
2009,05,23,12,31,16.60
2009,05,23,12,32,16.60
2009,05,23,12,33,16.60
2009,05,23,12,34,16.70
2009,05,23,12,35,16.80
2009,05,23,12,36,16.90
2009,05,23,12,37,16.90
2009,05,23,12,38,17.00
2009,05,23,12,39,17.00
2009,05,23,12,40,17.10
2009,05,23,12,41,17.10
2009,05,23,12,42,17.10
2009,05,23,12,43,17.10
2009,05,23,12,44,17.10
2009,05,23,12,45,17.10
2009,05,23,12,46,17.10
2009,05,23,12,47,17.10
2009,05,23,12,48,17.20
2009,05,23,12,49,17.20
2009,05,23,12,50,17.30
2009,05,23,12,51,17.30
2009,05,23,12,52,17.30
2009,05,23,12,53,17.40
2009,05,23,12,54,17.40
2009,05,23,12,55,17.50
2009,05,23,12,56,17.50
2009,05,23,12,57,17.50
2009,05,23,12,58,17.50
2009,05,23,12,59,17.50
2009,05,23,13,00,17.40
2009,05,23,13,01,17.30
2009,05,23,13,02,17.30
2009,05,23,13,03,17.20
2009,05,23,13,04,17.20
2009,05,23,13,05,17.20
2009,05,23,13,06,17.10
2009,05,23,13,07,17.00
2009,05,23,13,08,16.90
2009,05,23,13,09,16.90
2009,05,23,13,10,16.90
2009,05,23,13,11,16.90
2009,05,23,13,12,16.90
2009,05,23,13,13,16.90
2009,05,23,13,14,17.00
2009,05,23,13,15,17.10
2009,05,23,13,16,17.10
2009,05,23,13,17,17.20
2009,05,23,13,18,17.20
2009,05,23,13,19,17.10
2009,05,23,13,20,17.10
2009,05,23,13,21,17.10
2009,05,23,13,22,17.10
2009,05,23,13,23,17.10
2009,05,23,13,24,17.00
2009,05,23,13,25,17.00
2009,05,23,13,26,17.00
2009,05,23,13,27,17.00
2009,05,23,13,28,17.10
2009,05,23,13,29,17.20
2009,05,23,13,30,17.20
2009,05,23,13,31,17.30
2009,05,23,13,32,17.30
2009,05,23,13,33,17.30
2009,05,23,13,34,17.30
2009,05,23,13,35,17.30
2009,05,23,13,36,17.30
2009,05,23,13,37,17.30
2009,05,23,13,38,17.50
2009,05,23,13,39,17.60
2009,05,23,13,40,17.70
2009,05,23,13,41,17.70
2009,05,23,13,42,17.70
2009,05,23,13,43,17.70
2009,05,23,13,44,17.70
2009,05,23,13,45,17.70
2009,05,23,13,46,17.70
2009,05,23,13,47,17.70
2009,05,23,13,48,17.70
2009,05,23,13,49,17.60
2009,05,23,13,50,17.60
2009,05,23,13,51,17.50
2009,05,23,13,52,17.50
2009,05,23,13,53,17.40
2009,05,23,13,54,17.40
2009,05,23,13,55,17.40
2009,05,23,13,56,17.30
2009,05,23,13,57,17.30
2009,05,23,13,58,17.40
2009,05,23,13,59,17.40
2009,05,23,14,00,17.50
2009,05,23,14,01,17.60
2009,05,23,14,02,17.70
2009,05,23,14,03,17.80
2009,05,23,14,04,17.90
2009,05,23,14,05,17.90
2009,05,23,14,06,17.80
2009,05,23,14,07,17.80
2009,05,23,14,08,17.70
2009,05,23,14,09,17.60
2009,05,23,14,10,17.50
2009,05,23,14,11,17.40
2009,05,23,14,12,17.30
2009,05,23,14,13,17.30
2009,05,23,14,14,17.40
2009,05,23,14,15,17.50
2009,05,23,14,16,17.60
2009,05,23,14,17,17.60
2009,05,23,14,18,17.60
2009,05,23,14,19,17.70
2009,05,23,14,20,17.70
2009,05,23,14,21,17.80
2009,05,23,14,22,17.80
2009,05,23,14,23,17.80
2009,05,23,14,24,17.70
2009,05,23,14,25,17.60
2009,05,23,14,26,17.50
2009,05,23,14,27,17.50
2009,05,23,14,28,17.50
2009,05,23,14,29,17.50
2009,05,23,14,30,17.50
2009,05,23,14,31,17.40
2009,05,23,14,32,17.40
2009,05,23,14,33,17.50
2009,05,23,14,34,17.50
2009,05,23,14,35,17.40
2009,05,23,14,36,17.30
2009,05,23,14,37,17.30
2009,05,23,14,38,17.40
2009,05,23,14,39,17.40
2009,05,23,14,40,17.40
2009,05,23,14,41,17.30
2009,05,23,14,42,17.30
2009,05,23,14,43,17.30
2009,05,23,14,44,17.40
2009,05,23,14,45,17.50
2009,05,23,14,46,17.60
2009,05,23,14,47,17.70
2009,05,23,14,48,17.80
2009,05,23,14,49,17.80
2009,05,23,14,50,17.90
2009,05,23,14,51,17.90
2009,05,23,14,52,17.90
2009,05,23,14,53,17.90
2009,05,23,14,54,17.80
2009,05,23,14,55,17.80
2009,05,23,14,56,17.80
2009,05,23,14,57,17.80
2009,05,23,14,58,17.70
2009,05,23,14,59,17.70
2009,05,23,15,00,17.70
2009,05,23,15,01,17.60
2009,05,23,15,02,17.60
2009,05,23,15,03,17.70
2009,05,23,15,04,17.70
2009,05,23,15,05,17.70
2009,05,23,15,06,17.70
2009,05,23,15,07,17.70
2009,05,23,15,08,17.60
2009,05,23,15,09,17.60
2009,05,23,15,10,17.50
2009,05,23,15,11,17.50
2009,05,23,15,12,17.40
2009,05,23,15,13,17.40
2009,05,23,15,14,17.40
2009,05,23,15,15,17.50
2009,05,23,15,16,17.40
2009,05,23,15,17,17.40
2009,05,23,15,18,17.30
2009,05,23,15,19,17.30
2009,05,23,15,20,17.20
2009,05,23,15,21,17.20
2009,05,23,15,22,17.10
2009,05,23,15,23,17.10
2009,05,23,15,24,17.10
2009,05,23,15,25,17.00
2009,05,23,15,26,16.90
2009,05,23,15,27,16.90
2009,05,23,15,28,17.00
2009,05,23,15,29,17.10
2009,05,23,15,30,17.10
2009,05,23,15,31,17.10
2009,05,23,15,32,17.20
2009,05,23,15,33,17.10
2009,05,23,15,34,17.10
2009,05,23,15,35,17.20
2009,05,23,15,36,17.20
2009,05,23,15,37,17.20
2009,05,23,15,38,17.10
2009,05,23,15,39,17.10
2009,05,23,15,40,17.10
2009,05,23,15,41,17.10
2009,05,23,15,42,17.10
2009,05,23,15,43,17.20
2009,05,23,15,44,17.30
2009,05,23,15,45,17.40
2009,05,23,15,46,17.50
2009,05,23,15,47,17.60
2009,05,23,15,48,17.80
2009,05,23,15,49,17.90
2009,05,23,15,50,18.00
2009,05,23,15,51,18.10
2009,05,23,15,52,18.20
2009,05,23,15,53,18.30
2009,05,23,15,54,18.40
2009,05,23,15,55,18.40
2009,05,23,15,56,18.40
2009,05,23,15,57,18.30
2009,05,23,15,58,18.30
2009,05,23,15,59,18.30
2009,05,23,16,00,18.40
2009,05,23,16,01,18.40
2009,05,23,16,02,18.50
2009,05,23,16,03,18.60
2009,05,23,16,04,18.60
2009,05,23,16,05,18.70
2009,05,23,16,06,18.70
2009,05,23,16,07,18.80
2009,05,23,16,08,18.80
2009,05,23,16,09,18.90
2009,05,23,16,10,19.00
2009,05,23,16,11,19.10
2009,05,23,16,12,19.20
2009,05,23,16,13,19.30
2009,05,23,16,14,19.30
2009,05,23,16,15,19.40
2009,05,23,16,16,19.50
2009,05,23,16,17,19.70
2009,05,23,16,18,19.80
2009,05,23,16,19,19.80
2009,05,23,16,20,19.90
2009,05,23,16,21,19.90
2009,05,23,16,22,19.90
2009,05,23,16,23,19.90
2009,05,23,16,24,19.90
2009,05,23,16,25,20.00
2009,05,23,16,26,20.00
2009,05,23,16,27,20.00
2009,05,23,16,28,20.00
2009,05,23,16,29,20.00
2009,05,23,16,30,20.00
2009,05,23,16,31,20.00
2009,05,23,16,32,20.00
2009,05,23,16,33,20.00
2009,05,23,16,34,20.10
2009,05,23,16,35,20.10
2009,05,23,16,36,20.10
2009,05,23,16,37,20.10
2009,05,23,16,38,20.20
2009,05,23,16,39,20.10
2009,05,23,16,40,20.10
2009,05,23,16,41,20.10
2009,05,23,16,42,20.10
2009,05,23,16,43,20.00
2009,05,23,16,44,19.90
2009,05,23,16,45,19.90
2009,05,23,16,46,19.80
2009,05,23,16,47,19.70
2009,05,23,16,48,19.70
2009,05,23,16,49,19.60
2009,05,23,16,50,19.50
2009,05,23,16,51,19.40
2009,05,23,16,52,19.30
2009,05,23,16,53,19.30
2009,05,23,16,54,19.20
2009,05,23,16,55,19.20
2009,05,23,16,56,19.20
2009,05,23,16,57,19.30
2009,05,23,16,58,19.30
2009,05,23,16,59,19.40
2009,05,23,17,00,19.50
2009,05,23,17,01,19.60
2009,05,23,17,02,19.60
2009,05,23,17,03,19.70
2009,05,23,17,04,19.70
2009,05,23,17,05,19.70
2009,05,23,17,06,19.70
2009,05,23,17,07,19.70
2009,05,23,17,08,19.70
2009,05,23,17,09,19.70
2009,05,23,17,10,19.60
2009,05,23,17,11,19.60
2009,05,23,17,12,19.60
2009,05,23,17,13,19.60
2009,05,23,17,14,19.60
2009,05,23,17,15,19.60
2009,05,23,17,16,19.60
2009,05,23,17,17,19.60
2009,05,23,17,18,19.60
2009,05,23,17,19,19.50
2009,05,23,17,20,19.50
2009,05,23,17,21,19.40
2009,05,23,17,22,19.40
2009,05,23,17,23,19.40
2009,05,23,17,24,19.30
2009,05,23,17,25,19.30
2009,05,23,17,26,19.30
2009,05,23,17,27,19.30
2009,05,23,17,28,19.30
2009,05,23,17,29,19.30
2009,05,23,17,30,19.30
2009,05,23,17,31,19.30
2009,05,23,17,32,19.30
2009,05,23,17,33,19.40
2009,05,23,17,34,19.40
2009,05,23,17,35,19.50
2009,05,23,17,36,19.60
2009,05,23,17,37,19.70
2009,05,23,17,38,19.80
2009,05,23,17,39,19.90
2009,05,23,17,40,20.00
2009,05,23,17,41,20.00
2009,05,23,17,42,20.00
2009,05,23,17,43,20.00
2009,05,23,17,44,20.00
2009,05,23,17,45,19.90
2009,05,23,17,46,19.90
2009,05,23,17,47,19.90
2009,05,23,17,48,19.90
2009,05,23,17,49,19.80